DECAYED

STARLINK-1884, 47167 (Decayed)

Orbit data source: Space-Track

STARLINK-1884, 47167 was a payload satellite owned by SpaceX/Seattle (US) in LEO that was launched on Wed, 25 Nov 2020 UTC via an FALCON 9 launch vehicle from the Air Force Eastern Test Range (AFETR). Payload-class satellites include a variety of spacecraft equipped with specific instruments for various scientific and technological missions. These include communications satellites like Starlink; space stations such as the ISS; scientific satellites like the Hubble; Earth observation satellites from companies like Planet Labs, Umbra, and HawkEye 360; GPS; miniature CubeSats for education and research; and military/defense satellites.

Not visible in the next 10 days
Identifier
47167, 2020-088AX
Orbit
Decayed
Country
Flag of USUS
Related business
Manufacturer
SpaceX/Seattle
Mission
Decayed Commercial Communications
Bus & Motor
STARLINK, Unknown motor
Mass
260 kg wet, ~248 kg dry
Launch date (UTC)
2020-11-25 (6 years ago)
Launch vehicle
FALCON 9
Launch site
Air Force Eastern Test Range (AFETR)
Object type
Payload
Rocket body
Debris
Shape & HBR
Box + 1 Pan, 10.1 m
Radar Cross Section
13.562 m², Large (>1 m²)

Expand to show TLE details & history
Last TLE update: 1 year ago

TLE from 1 year ago
0 STARLINK-1884
1 47167U 20088AX  25014.46010591  .13120135  12426-4  58490-3 0  9995
2 47167  53.0287 356.7490 0002135 197.1827 255.2208 16.43567820229326
Epoch: 2025-01-14T11:02Z
TLE epoch observation values (Epoch: 2025-01-14T11:02:33.150Z)
Latitude
53.12194°
Longitude
170.90201°
Altitude
163.145 km
Speed
7.815 km/s
True Right ascension
06h 02m 49s
True Declination
52° 56' 30"
Sunlit
Object was in full shadow at epoch
Visualization orbit readout
Latitude
Unknown
Longitude
Unknown
Altitude
Unknown
Speed
Unknown
Apparent Right ascension
Unknown
Apparent Declination
Unknown
Sunlit
N/A
Visualization observer readout
Local Sidereal Time
00:38:31
Azimuth
Unknown
Elevation
Unknown
Doppler factor
Unknown
Orbital elements
Apogee altitude
158.015 km
Perigee altitude
155.224 km
Semi-major axis
6,534.757 km
Eccentricity
0.00021
Inclination
53.0287°
RAAN
356.749°
Arg. of periapsis
197.1827°
True anomaly
255.19715°
Mean anomaly
255.2208°
Eccentric anomaly
255.20897°
Mean motion
4.10865 °/min
Orbital period
87.62 mins
BSTAR
0.0005849
Loading maneuver chart data...
Computing Atmospheric mass density...

Documentation

Showing up to 5 results
|